Regional Weather Roundup
Issued by NWS

Home | Current Version | Previous Version | Text Only | Print | Product List | Glossary Off
Versions: 1 2 3 4 5 6 7 8 9 10 11 12 13 14 15 16 17 18 19 20 21 22 23 24 25 26 27 28 29 30 31 32 33 34 35 36 37 38 39 40 41 42 43 44 45 46 47 48 49 50

000
ASUS43 KIND 250509
RWRIN

WEATHER ROUNDUP FOR INDIANA
NATIONAL WEATHER SERVICE INDIANAPOLIS IN
100 AM EDT WED MAY 25 2016

NOTE: "FAIR" INDICATES FEW OR NO CLOUDS BELOW 12,000 FEET WITH NO
SIGNIFICANT WEATHER AND/OR OBSTRUCTIONS TO VISIBILITY.

* - STATION DOES NOT REPORT WEATHER SUCH AS PRECIPITATION OR FOG.

+ - STATION NOT QUALITY CONTROLLED BY THE NATIONAL WEATHER SERVICE.
    USE DATA WITH CAUTION...ESPECIALLY DEWPOINT AND RELATIVE
    HUMIDITY OBSERVATIONS.

INZ001>003-010>013-019-020-250600-
NORTHWEST INDIANA

CITY           SKY/WX    TMP DP  RH WIND       PRES   REMARKS
GARY /AIRPORT/ CLOUDY    75  62  64 S6        30.00R
KNOX *+        CLEAR     68  43  40 S6        30.01S
LA PORTE +     CLOUDY    73  54  52 S5        30.01S
MICHIGAN CITY+ MOCLDY    72  54  53 S9        30.00S
MONTICELLO +   CLEAR     70  49  47 S5        30.02S
RENSSELAER +   PTCLDY    72  54  53 S7        30.03R
VALPARAISO     PTCLDY    71  55  56 S6        30.01S

$$

LMZ046-743>745-250600-
SOUTHERN LAKE MICHIGAN

STATION/POSITION TIME  TEMP    WIND        PRES    WAVE
                       AIR SEA DIR/SP/G            HT
                 (UTC) (F)     (DEG/KT/KT) (MB)    (FT)
BURNS HARBOR     0400   75     180/  9/ 13 1015.9S
MICHIGAN CITY    0400   76     160/ 12/ 16   N/A
5NW MICH CITY    0500   68 57  200/ 10/ 12   N/A     1

$$

INZ004-005-014>016-021>024-250600-
NORTH CENTRAL INDIANA

CITY           SKY/WX    TMP DP  RH WIND       PRES   REMARKS
GOSHEN         CLEAR     67  49  52 S7        30.02F
LOGANSPORT +   CLEAR     64  54  68 S6        30.04F
PERU/GRISSOM   CLEAR     64  54  68 S6        30.03F HAZE
ROCHESTER +    CLEAR     72  55  56 S5        30.04S
SOUTH BEND     CLOUDY    68  52  56 SW7       30.01F
WARSAW +       PTCLDY    66  52  59 CALM      30.04S

$$

INZ006>009-017-018-025>027-250600-
NORTHEAST INDIANA

CITY           SKY/WX    TMP DP  RH WIND       PRES   REMARKS
ANGOLA *+      CLEAR     61  52  72 CALM      30.04S
AUBURN +       CLEAR     63  48  59 CALM      30.05S
FORT WAYNE     PTCLDY    63  49  60 S7        30.05F
HUNTINGTON +   CLEAR    N/A N/A N/A SW3       30.05S

$$

INZ028-029-035-036-043>045-051>053-250600-
WEST CENTRAL INDIANA

CITY           SKY/WX    TMP DP  RH WIND       PRES   REMARKS
CRAWFORDSVL +  PTCLDY    62  55  77 SE5       30.04F
GREENCASTLE +  PTCLDY    63  59  88 CALM      30.05F
LAFAYETTE      CLOUDY    68  54  60 S3        30.02F
TERRE HAUTE    PTCLDY    68  56  65 S5        30.04F

$$

INZ030>032-037>040-046>048-054>057-064-065-250600-
CENTRAL INDIANA

CITY           SKY/WX    TMP DP  RH WIND       PRES   REMARKS
CP ATTERBURY + MOCLDY    61  57  88 CALM      30.08S
FISHERS *+     CLEAR     63  57  82 CALM      30.06F
FRANKFORT +      N/A     64  46  50 CALM      30.06S
GREENWOOD *+   CLEAR     64  55  72 CALM      30.07F
INDIANAPOLIS   MOCLDY    66  55  67 S3        30.05S
-EAGLE CREEK   CLEAR     68  56  65 CALM      30.06S
KOKOMO *+      CLEAR     63  52  67 S6        30.05F
MARION +       CLEAR     65  53  65 S3        30.06F
SHELBYVILLE    CLEAR     64  55  72 SE5       30.06F
ZIONSVILLE +   CLEAR     61  55  81 S3        30.07S

$$

INZ033-034-041-042-049-050-058-059-250600-
EAST CENTRAL INDIANA

CITY           SKY/WX    TMP DP  RH WIND       PRES   REMARKS
MUNCIE         CLEAR     69  51  52 S7        30.06F

$$

INZ060-061-067>069-081>083-085>088-250600-
SOUTHWEST INDIANA

CITY           SKY/WX    TMP DP  RH WIND       PRES   REMARKS
EVANSVILLE     CLEAR     69  59  70 CALM      30.05F
HUNTINGBURG *+ MOCLDY    70  55  60 S5        30.06S
WASHINGTON +   CLOUDY    69  61  75 S5        30.03F

$$

INZ062-063-066-070>080-084-089>092-250600-
SOUTH CENTRAL AND SOUTHEAST INDIANA

CITY           SKY/WX    TMP DP  RH WIND       PRES   REMARKS
BEDFORD +      CLOUDY    66  64  94 CALM      30.06S
BLOOMINGTON    CLEAR     68  55  63 SE5       30.06F
MADISON *+     CLEAR     64  55  72 CALM      30.10F
NORTH VERNON + CLEAR     63  63 100 CALM      30.08F
SEYMOUR +      CLEAR     64  59  82 CALM      30.07S

$$





USA.gov is the U.S. government's official web portal to all federal, state and local government web resources and services.